Location: ??????
(55.2000°N, 38.3000°E)
Time: 17:07:41
(UTC+00:00)

ATLAS 3B R/B - Pass Details

Date: 15 November 2025
Orbit: 935 x 1258 km, 63.8° (Epoch: 14 December)

Event Time Altitude Azimuth Distance (km) Brightness Sun altitude
Rises 03:37:56 0° 223° (SW) 4,065 5.5 -11.4°
Reaches altitude 10° 03:40:36 10° 223° (SW) 3,140 4.9 -11.1°
Maximum altitude 03:48:16 84° 136° (SE) 1,258 3.1 -10.0°
Drops below altitude 10° 03:56:12 10° 50° (NE) 3,250 5.7 -9.0°
Sets 03:59:01 0° 50° (NE) 4,215 6.3 -8.6°
